www.pogodaiklimat.ru

Погода и климат >> Архив погоды >> Иран >> Jask


ПОГОДА в Jask

  • Прогноз погоды в Jask
  • Монитор погоды в Jask
  • Климат города

АРХИВ ПОГОДЫ в Jask

Время (UTC), дата Ветер
(напр.,м/с)
 
Видим.   Явления Облачность Т
(С)
Тd
(С)
f
(%)
Тe
(С)
Тes
(С)
Комфортность P
(гПа)
Po
(гПа)
Тmin
(С)
Tmax
(С)
R
(мм)
R24
(мм)
S
(см)
18 11.10 штиль 0 5000 м мгла ясно +28.2 +20.7 64 +35 +35 очень
душно
1010.9 1010.3
21 11.10 штиль 0 6000 м мгла ясно +28.3 +18.4 55 +33 +33 очень
душно
1010.7 1010.1
00 12.10 С 2 6000 м мгла ясно +27.0 +17.8 57 +31 +31 душно 1009.9 1009.3
03 12.10 В 4 6000 м мгла ясно +27.0 +17.8 57 +31 +32 душно 1011.0 1010.5 +26.8
06 12.10 Ю 5 6000 м мгла ясно +30.0 +25.8 78 +45 +50 опасность
перегрева
1012.5 1012.0
09 12.10 ЮЗ 3 7000 м мгла ясно +30.8 +23.4 65 +42 +53 опасность
перегрева
1011.1 1010.5
12 12.10 З 3 7000 м мгла ясно +32.3 +21.9 54 1011.1 1009.2
15 12.10 штиль 0 10 км ясно +29.6 +21.0 60 +37 +37 очень
душно
1011.0 1010.4 +32.4
18 12.10 штиль 0 6000 м мгла ясно +28.1 +20.4 63 +35 +35 очень
душно
1012.0 1011.4
21 12.10 С 2 4000 м мгла ясно +27.0 +20.7 68 +34 +34 очень
душно
1011.5 1011.0
00 13.10 С 2 4000 м мгла ясно +26.0 +19.4 67 +31 +31 очень
душно
1011.5 1011.0
03 13.10 штиль 0 5000 м мгла ясно +27.9 +21.6 69 +36 +36 очень
душно
1012.9 1012.3 +24.8
06 13.10 В 2 6000 м мгла ясно +30.1 1014.4 1013.8
09 13.10 Ю 3 6000 м мгла ясно +30.5 +24.0 68 +42 +54 опасность
перегрева
1013.5 1012.9
12 13.10 ЮЗ 4 6000 м мгла ясно +30.9 1011.7 1011.1
15 13.10 штиль 0 6000 м мгла ясно +28.8 +22.1 67 +37 +37 очень
душно
1012.5 1011.9 +31.4
18 13.10 З 1 6000 м мгла ясно +27.2 +22.2 74 +35 +35 очень
душно
1013.9 1013.3
21 13.10 нст 1 5000 м мгла ясно +27.2 +22.2 74 +35 +35 очень
душно
1013.9 1013.3
00 14.10 нст 1 4000 м дымка ясно +26.3 +23.8 86 +36 +36 очень
душно
1012.6 1012.0
03 14.10 С 2 6000 м мгла ясно +25.9 +21.5 77 +33 +33 очень
душно
1013.9 1013.3 +25.4
06 14.10 З 2 6000 м мгла ясно +29.9 1015.3 1014.7
09 14.10 ЮЗ 4 8000 м мгла ясно +31.2 +22.2 59 +40 +50 очень
душно
1013.6 1013.0
12 14.10 З 3 7000 м мгла ясно +31.4 1011.7 1011.1
15 14.10 З 4 6000 м мгла ясно +29.3 +23.8 72 +40 +40 очень
душно
1012.0 1011.5 +32.3
18 14.10 З 3 6000 м мгла ясно +28.6 +24.5 79 +41 +41 опасность
перегрева
1013.2 1012.6
21 14.10 СЗ 2 5000 м дымка ясно +27.4 +24.6 85 +39 +39 очень
душно
1012.6 1012.1
00 15.10 СЗ 2 5000 м мгла ясно +26.3 +20.9 72 +33 +33 очень
душно
1012.2 1011.7
03 15.10 ЮЗ 2 5000 м мгла 8/0
[Cs]
+26.8 +21.7 74 +34 +35 очень
душно
1012.5 1011.9 +26.3
06 15.10 ЮВ 2 5000 м мгла 8/0
[Cs]
+30.4 +22.5 63 +40 +48 очень
душно
1013.7 1013.1
09 15.10 З 4 5000 м мгла 8/0
[Cs]
+31.3 +24.7 68 +44 +52 опасность
перегрева
1012.2 1011.7
12 15.10 З 4 5000 м мгла 6/0
[Cs]
+30.8 +24.7 70 +44 +46 опасность
перегрева
1011.0 1010.4
15 15.10 СЗ 4 5000 м мгла 5/0
[Cs]
+29.7 +24.8 75 +42 +42 опасность
перегрева
1011.2 1010.6 +31.7
18 15.10 СЗ 3 5000 м мгла 6/0
[Cs]
+29.9 +22.5 65 +39 +39 очень
душно
1012.4 1011.9
21 15.10 СЗ 3 5000 м мгла 6/0
[Cs]
+29.1 +22.4 67 +38 +38 очень
душно
1011.7 1011.2
00 16.10 С 2 5000 м мгла 6/0
[Cs]
+27.5 +23.5 79 +37 +37 очень
душно
1011.0 1010.5
03 16.10 штиль 0 5000 м мгла ясно +27.3 +22.1 73 +35 +36 очень
душно
1012.5 1011.9 +26.9
06 16.10 штиль 0 4000 м мгла ясно +31.2 +23.8 65 1013.6 1013.1
09 16.10 З 5 4000 м мгла 1/1 750 м
[Cu med, cong]
+32.2 +25.9 69 +47 +54 опасность
перегрева
1011.4 1010.9
12 16.10 З 10 3000 м пыльный позёмок 3/3 600 м
[Cb calv]
+31.0 +25.4 72 +45 +45 опасность
перегрева
1010.1 1009.6
15 16.10 З 4 4000 м мгла 3/3 600 м
[Cb calv Cs]
+29.5 +25.2 78 +43 +43 опасность
перегрева
1011.2 1010.6 +32.6
18 16.10 З 5 3000 м мгла ясно +29.4 +24.4 75 +42 +42 опасность
перегрева
1012.9 1012.3
21 16.10 С 2 4000 м мгла ясно +28.3 +19.6 59 +34 +34 очень
душно
1012.0 1011.4
00 17.10 С 2 4000 м мгла ясно +28.6 +13.6 40 +30 +30 жарко 1011.4 1010.8
03 17.10 СВ 2 5000 м мгла ясно +27.3 +17.3 54 +31 +32 душно 1013.0 1012.5 +26.9
06 17.10 ЮВ 2 3000 м мгла ясно +31.6 1013.9 1013.4
09 17.10 ЮЗ 3 5000 м мгла ясно +31.6 +19.8 50 +38 +49 очень
душно
1011.8 1011.3
12 17.10 ЮЗ 3 7000 м мгла ясно +32.1 1009.7 1009.2
15 17.10 СЗ 2 6000 м мгла ясно +29.6 +20.6 58 +36 +36 очень
душно
1010.8 1010.2 +33.1
18 17.10 З 2 6000 м мгла ясно +28.9 +19.7 58 +35 +35 очень
душно
1011.7 1011.1
21 17.10 ЮЗ 2 5000 м мгла ясно +27.6 +19.6 62 +33 +33 очень
душно
1011.1 1010.6
00 18.10 С 4 5000 м мгла ясно +27.6 +13.8 43 +30 +30 жарко 1010.6 1010.1
03 18.10 Ю 2 5000 м мгла ясно +27.7 +22.2 72 +36 +36 очень
душно
1011.5 1011.0 +26.2
06 18.10 штиль 0 4000 м мгла ясно +30.8 1012.9 1012.3
09 18.10 ЮЗ 2 5000 м мгла ясно +31.6 +19.4 48 +37 +50 очень
душно
1011.6 1011.0
12 18.10 З 4 6000 м мгла ясно +31.7 1009.4 1008.9

 

Местоположение метеостанции Jask (Иран): широта 25.63 долгота 57.77 высота над уровнем моря 3 м.

В архиве по умолчанию представлена погода в Jask за последнюю неделю. Архивные данные за месяц целиком и за предыдущие месяцы, начиная с января 2011 года, Вы можете получить, выбрав интересующий диапазон дат из раскрывающегося списка и нажав кнопку "Ввод!".


*Определитесь, кто Вы:
робот инопланетянин человек

Внимание! Время в таблицах - всемирное. Для получения местного времени необходимо прибавить поправку, которая в Jask равна 3.5 ч.

Смотрите также архив погоды в соседних городах и на ближайших метеорологических станциях:

Погода в Diba (Оман) (152 км)
Погода в Fujairah (ОАЭ) (156 км)
Погода в Khasab Airport (Оман) (165 км)
Погода в Khasab (Оман) (166 км)
Погода в Sohar Majis (Оман) (173 км)
Погода в Ras Al Khaimah Int Airport (ОАЭ) (185 км)
Погода в Suwaiq (Оман) (208 км)
Погода в Bandarabbass (Иран) (225 км)
Погода в Sharjah (ОАЭ) (228 км)
Погода в Seeb (Оман) (234 км)

Пояснения к столбцам:

Ветер - указаны скорость ветра в м/с - средняя за 10 мин, порывы в срок и между сроками (в фигурных скобках) и направление, откуда дует ветер: С - северный, СВ - северо-восточный, В - восточный, ЮВ - юго-восточный, Ю - южный, ЮЗ - юго-западный, З - западный, СЗ - северо-западный.
Видимость - горизонтальная дальность видимости в метрах или километрах. При видимости от 1 до 10 км при отсутствии осадков обычно наблюдается дымка, при ухудшении видимости до 1 км и менее - туман. В сухую погоду видимость может ухудшаться дымом, пылью или мглою.
Явления - указаны атмосферные явления, наблюдавшиеся в срок или в последний час перед сроком; фигурными скобками обозначены явления, наблюдавшиеся между сроками (за 1-3 часа до срока); квадратными скобками обозначены град или гололедные отложения с указанием их диаметра в мм.
Облачность - указаны через наклонную черту общая и нижняя облачность в баллах и высота нижней границы облаков в метрах; квадратными скобками обозначены формы облаков: Ci - перистые, Cs - перисто-слоистые, Cc - перисто-кучевые, Ac - высококучевые, As - высокослоистые, Sc - слоисто-кучевые, Ns - слоисто-дождевые, Cu - кучевые, Cb - кучево-дождевые. Подробнее классификацию облаков см. в Атласе облаков (PDF).
T - Температура воздуха - температура, измеренная на высоте 2 м над землей.
Td - Температура точки росы - температура, при понижении до которой содержащийся в воздухе водяной пар достигнет насыщения.
f - Относительная влажность воздуха - влажноcть воздуха, измеренная на высоте 2 м над землей.
Te - Эффективная температура - температура, которую ощущает одетый по сезону человек в тени. Характеристика душности погоды. При расчете учитывается влияние влажности воздуха и скорости ветра на теплоощущения человека.
Tes - Эффективная температура на солнце - температура, которую ощущает человек, с поправкой на солнечный нагрев. Характеристика знойности погоды. Зависит от высоты солнца над горизонтом, облачности и скорости ветра. Ночью, в пасмурную погоду, а также при ветре 12 м/с и более поправка равна нулю.
P - Атмосферное давление - приведенное к уровню моря атмосферное давление.
Po - Атмосферное давление - измеренное на уровне метеостанции атмосферное давление.
Tmin - Минимальная температура - минимум температуры воздуха на высоте 2 м над землей.
Tmax - Максимальная температура - максимум температуры воздуха на высоте 2 м над землей.
R - Количество осадков - Количество выпавших осадков за период времени, мм. При наведении курсора мыши на число - период времени, за который выпало указанное количество осадков.
R24 - Количество осадков - Количество выпавших осадков за 24 часа, мм.
S - Снежный покров - Высота снежного покрова, см. При наведении курсора мыши на число - состояние снежного покрова и степень покрытия местности в баллах.